User: anonymous   Login
Location: NJAA Observatory
(40.6819°N, 74.8979°W)
Time: 21:51:41
(UTC-05:00)
Language:

Meteor 2-9 Rocket - Orbit

View from above orbital plane
View from above orbital plane
View from above satellite
View from above satellite

Ground track
Ground track

The orbit data is extracted from the following two-line orbital elements,

1 13719U 82116B   17051.52940064 -.00000006  00000-0 -89828-5 0  9991
2 13719  81.2542 114.6595 0070949 326.2251 141.8511 14.14598307763870
Epoch (UTC): 20 February 2017 12:42:20
Eccentricity: 0.0070949
inclination: 81.2542°
perigee height: 792 km
apogee height: 895 km
right ascension of ascending node: 114.6595°
argument of perigee: 326.2251°
revolutions per day: 14.14598307
mean anomaly at epoch: 141.8511°
orbit number at epoch: 76387

The dashed part of the orbit path shows where the satellite is in the earth's shadow,  

DLR